Zurück zum Katalog

STARLINK-35828

AktivKommunikationVLEO
NORAD 66351·PAYLOAD·🇺🇸 United States

Gestartet Nov 6, 2025 von Vandenberg Space Force Base

Loading…

Nächste Überflüge (nächste 24 Stunden)

TLE

AktuellSource: CelesTrak SupGP

Epoche: Sep 14, 2026, 23:12 UTC

1 66351C 25254D   26257.96715278  .00037767  00000+0  12148-2 0  2570
2 66351  53.1591  71.7053 0001241  84.5423  40.0817 15.31675048    15

Verfolge STARLINK-35828 in Echtzeit mit AllMySat

Download on the App Store